Time,TemperatureF,DewpointF,PressureIn,WindDirection,WindDirectionDegrees,WindSpeedMPH,WindSpeedGustMPH,Humidity,HourlyPrecipIn,Conditions,Clouds,dailyrainin,SolarRadiationWatts/m^2,SoftwareType,DateUTC
2013-03-12 00:00:00,63.4,57.8,29.87,SE,140,2.0,11.0,82,0.00,,---,0.00,0.00,VWS V14.01,2013-03-12 04:00:00,
2013-03-12 00:03:00,63.4,57.8,29.87,ESE,109,2.0,5.0,82,0.00,,---,0.00,0.00,VWS V14.01,2013-03-12 04:03:00,
2013-03-12 00:08:00,63.4,57.8,29.86,SE,124,2.0,9.0,82,0.00,,---,0.00,0.00,VWS V14.01,2013-03-12 04:08:00,
2013-03-12 00:13:00,63.3,58.1,29.86,SSE,159,4.0,8.0,83,0.00,,---,0.00,0.00,VWS V14.01,2013-03-12 04:13:00,
2013-03-12 00:20:00,63.1,58.2,29.85,SSE,159,0.0,0.0,84,0.00,,---,0.00,0.00,VWS V14.01,2013-03-12 04:20:00,
2013-03-12 00:25:00,63.0,58.1,29.85,SE,134,4.0,11.0,84,0.00,,---,0.00,0.00,VWS V14.01,2013-03-12 04:25:00,
2013-03-12 00:30:00,62.9,58.3,29.85,SSE,167,0.0,12.0,85,0.00,,---,0.00,0.00,VWS V14.01,2013-03-12 04:30:00,
2013-03-12 00:35:00,62.8,58.2,29.85,SSE,168,0.0,9.0,85,0.00,,---,0.00,0.00,VWS V14.01,2013-03-12 04:35:00,
2013-03-12 00:40:00,62.7,58.5,29.85,SSE,164,4.0,4.0,86,0.00,,---,0.00,0.00,VWS V14.01,2013-03-12 04:40:00,
2013-03-12 00:45:00,62.6,58.4,29.86,SE,138,4.0,7.0,86,0.00,,---,0.00,0.00,VWS V14.01,2013-03-12 04:45:00,
2013-03-12 00:50:00,62.6,58.7,29.85,SE,142,1.0,6.0,87,0.00,,---,0.00,0.00,VWS V14.01,2013-03-12 04:50:00,
2013-03-12 00:55:00,62.5,58.6,29.84,South,171,6.0,7.0,87,0.01,,---,0.01,0.00,VWS V14.01,2013-03-12 04:55:00,
2013-03-12 01:00:00,62.3,58.7,29.85,SSE,161,0.0,7.0,88,0.02,,---,0.02,0.00,VWS V14.01,2013-03-12 05:00:00,
2013-03-12 01:05:00,62.2,58.6,29.85,SSE,167,2.0,4.0,88,0.02,,---,0.02,0.00,VWS V14.01,2013-03-12 05:05:00,
2013-03-12 01:11:00,62.1,58.5,29.86,SSE,151,4.0,8.0,88,0.02,,---,0.02,0.00,VWS V14.01,2013-03-12 05:11:00,
2013-03-12 01:16:00,61.9,58.6,29.86,SE,142,5.0,5.0,89,0.03,,---,0.03,0.00,VWS V14.01,2013-03-12 05:16:00,
2013-03-12 01:21:00,61.8,58.5,29.85,SE,142,0.0,5.0,89,0.04,,---,0.04,0.00,VWS V14.01,2013-03-12 05:21:00,
2013-03-12 01:27:00,61.7,58.7,29.85,SE,141,0.0,0.0,90,0.04,,---,0.04,0.00,VWS V14.01,2013-03-12 05:27:00,
2013-03-12 01:32:00,61.6,58.6,29.84,SSE,164,0.0,1.0,90,0.06,,---,0.06,0.00,VWS V14.01,2013-03-12 05:32:00,
2013-03-12 01:37:00,61.5,58.5,29.84,SE,128,1.0,2.0,90,0.06,,---,0.06,0.00,VWS V14.01,2013-03-12 05:37:00,
2013-03-12 01:42:00,61.3,58.7,29.84,ESE,120,0.0,2.0,91,0.06,,---,0.06,0.00,VWS V14.01,2013-03-12 05:42:00,
2013-03-12 01:48:00,61.3,58.7,29.84,SE,142,1.0,4.0,91,0.07,,---,0.07,0.00,VWS V14.01,2013-03-12 05:48:00,
2013-03-12 01:53:00,61.2,58.6,29.84,SE,146,0.0,2.0,91,0.06,,---,0.07,0.00,VWS V14.01,2013-03-12 05:53:00,
2013-03-12 01:58:00,61.1,58.5,29.84,SE,145,0.0,0.0,91,0.06,,---,0.07,0.00,VWS V14.01,2013-03-12 05:58:00,
2013-03-12 02:03:00,61.0,58.7,29.84,SE,145,2.0,2.0,92,0.05,,---,0.07,0.00,VWS V14.01,2013-03-12 06:03:00,
2013-03-12 02:08:00,61.0,58.7,29.84,SSE,165,0.0,5.0,92,0.05,,---,0.07,0.00,VWS V14.01,2013-03-12 06:08:00,
2013-03-12 02:13:00,60.9,58.6,29.84,SSE,164,0.0,0.0,92,0.05,,---,0.07,0.00,VWS V14.01,2013-03-12 06:13:00,
2013-03-12 02:18:00,60.8,58.5,29.84,ESE,121,0.0,4.0,92,0.04,,---,0.07,0.00,VWS V14.01,2013-03-12 06:18:00,
2013-03-12 02:23:00,60.8,58.5,29.84,SE,141,0.0,1.0,92,0.04,,---,0.08,0.00,VWS V14.01,2013-03-12 06:23:00,
2013-03-12 02:28:00,60.7,58.4,29.83,SSE,167,0.0,4.0,92,0.04,,---,0.08,0.00,VWS V14.01,2013-03-12 06:28:00,
2013-03-12 02:34:00,60.7,58.7,29.83,SE,138,0.0,5.0,93,0.03,,---,0.08,0.00,VWS V14.01,2013-03-12 06:34:00,
2013-03-12 02:39:00,60.7,58.7,29.84,SE,135,0.0,5.0,93,0.02,,---,0.08,0.00,VWS V14.01,2013-03-12 06:39:00,
2013-03-12 02:44:00,60.7,58.7,29.84,SSE,157,0.0,4.0,93,0.03,,---,0.09,0.00,VWS V14.01,2013-03-12 06:44:00,
2013-03-12 02:49:00,60.7,58.7,29.84,SSE,157,0.0,1.0,93,0.03,,---,0.09,0.00,VWS V14.01,2013-03-12 06:49:00,
2013-03-12 02:54:00,60.7,58.7,29.84,SSW,198,0.0,2.0,93,0.03,,---,0.10,0.00,VWS V14.01,2013-03-12 06:54:00,
2013-03-12 02:59:00,60.7,58.7,29.83,SSW,197,1.0,4.0,93,0.03,,---,0.10,0.00,VWS V14.01,2013-03-12 06:59:00,
2013-03-12 03:05:00,60.7,58.7,29.83,South,177,0.0,5.0,93,0.04,,---,0.11,0.00,VWS V14.01,2013-03-12 07:05:00,
2013-03-12 03:10:00,60.7,59.0,29.83,SSW,192,0.0,5.0,94,0.05,,---,0.12,0.00,VWS V14.01,2013-03-12 07:10:00,
2013-03-12 03:15:00,60.7,59.0,29.83,South,176,0.0,5.0,94,0.05,,---,0.12,0.00,VWS V14.01,2013-03-12 07:15:00,
2013-03-12 03:20:00,60.7,59.0,29.83,SW,219,0.0,4.0,94,0.05,,---,0.12,0.00,VWS V14.01,2013-03-12 07:20:00,
2013-03-12 03:25:00,60.7,59.0,29.83,South,188,0.0,2.0,94,0.04,,---,0.12,0.00,VWS V14.01,2013-03-12 07:25:00,
2013-03-12 03:30:00,60.7,59.0,29.83,ESE,117,0.0,3.0,94,0.05,,---,0.13,0.00,VWS V14.01,2013-03-12 07:30:00,
2013-03-12 03:35:00,60.7,59.0,29.82,SW,224,7.0,7.0,94,0.05,,---,0.13,0.00,VWS V14.01,2013-03-12 07:35:00,
2013-03-12 03:40:00,60.7,59.0,29.82,SSE,152,0.0,6.0,94,0.06,,---,0.14,0.00,VWS V14.01,2013-03-12 07:40:00,
2013-03-12 03:46:00,60.7,59.0,29.82,South,188,3.0,6.0,94,0.06,,---,0.14,0.00,VWS V14.01,2013-03-12 07:46:00,
2013-03-12 03:52:00,60.7,59.0,29.83,SSW,198,3.0,6.0,94,0.06,,---,0.15,0.00,VWS V14.01,2013-03-12 07:52:00,
2013-03-12 03:57:00,60.8,59.1,29.83,SSW,213,6.0,7.0,94,0.06,,---,0.16,0.00,VWS V14.01,2013-03-12 07:57:00,
2013-03-12 04:02:00,60.8,59.1,29.82,SSW,208,3.0,6.0,94,0.08,,---,0.18,0.00,VWS V14.01,2013-03-12 08:02:00,
2013-03-12 04:07:00,60.8,59.1,29.82,SSW,192,2.0,6.0,94,0.06,,---,0.18,0.00,VWS V14.01,2013-03-12 08:07:00,
2013-03-12 04:12:00,60.8,59.1,29.82,SSW,211,0.0,5.0,94,0.08,,---,0.20,0.00,VWS V14.01,2013-03-12 08:12:00,
2013-03-12 04:17:00,60.8,59.1,29.82,SSW,192,0.0,7.0,94,0.08,,---,0.20,0.00,VWS V14.01,2013-03-12 08:17:00,
2013-03-12 04:22:00,60.8,59.1,29.82,SE,142,0.0,5.0,94,0.10,,---,0.22,0.00,VWS V14.01,2013-03-12 08:22:00,
2013-03-12 04:27:00,60.7,59.0,29.82,SSW,205,0.0,2.0,94,0.11,,---,0.23,0.00,VWS V14.01,2013-03-12 08:27:00,
2013-03-12 04:33:00,60.7,59.0,29.82,SSW,205,2.0,4.0,94,0.10,,---,0.23,0.00,VWS V14.01,2013-03-12 08:33:00,
2013-03-12 04:38:00,60.7,59.0,29.82,SSW,210,4.0,5.0,94,0.10,,---,0.24,0.00,VWS V14.01,2013-03-12 08:38:00,
2013-03-12 04:43:00,60.7,59.0,29.82,SSW,205,0.0,0.0,94,0.10,,---,0.24,0.00,VWS V14.01,2013-03-12 08:43:00,
2013-03-12 04:48:00,60.7,59.0,29.82,SSW,209,0.0,3.0,94,0.10,,---,0.24,0.00,VWS V14.01,2013-03-12 08:48:00,
2013-03-12 04:53:00,60.7,59.0,29.81,SSW,207,0.0,0.0,94,0.11,,---,0.26,0.00,VWS V14.01,2013-03-12 08:53:00,
2013-03-12 04:58:00,60.7,59.0,29.82,SSW,207,0.0,0.0,94,0.10,,---,0.26,0.00,VWS V14.01,2013-03-12 08:58:00,
2013-03-12 05:04:00,60.6,58.9,29.82,SSW,207,0.0,2.0,94,0.09,,---,0.26,0.00,VWS V14.01,2013-03-12 09:04:00,
2013-03-12 05:09:00,60.6,58.9,29.82,SSW,205,3.0,3.0,94,0.09,,---,0.27,0.00,VWS V14.01,2013-03-12 09:09:00,
2013-03-12 05:14:00,60.6,58.9,29.82,SSW,205,2.0,2.0,94,0.09,,---,0.29,0.00,VWS V14.01,2013-03-12 09:14:00,
2013-03-12 05:19:00,60.6,58.9,29.81,SE,132,0.0,5.0,94,0.10,,---,0.30,0.00,VWS V14.01,2013-03-12 09:19:00,
2013-03-12 05:24:00,60.6,58.9,29.81,SSE,161,4.0,6.0,94,0.09,,---,0.31,0.00,VWS V14.01,2013-03-12 09:24:00,
2013-03-12 05:29:00,60.6,59.2,29.80,SSE,147,4.0,6.0,95,0.09,,---,0.31,0.00,VWS V14.01,2013-03-12 09:29:00,
2013-03-12 05:34:00,60.7,59.3,29.80,SE,132,2.0,5.0,95,0.09,,---,0.32,0.00,VWS V14.01,2013-03-12 09:34:00,
2013-03-12 05:39:00,60.6,59.2,29.80,SSE,163,5.0,6.0,95,0.08,,---,0.32,0.00,VWS V14.01,2013-03-12 09:39:00,
2013-03-12 05:44:00,60.7,59.3,29.80,SSW,206,10.0,10.0,95,0.00,,---,0.32,0.00,VWS V14.01,2013-03-12 09:44:00,
2013-03-12 05:49:00,60.9,59.5,29.81,SSW,196,3.0,16.0,95,0.09,,---,0.33,0.00,VWS V14.01,2013-03-12 09:49:00,
2013-03-12 05:55:00,61.1,59.7,29.81,West,262,6.0,11.0,95,0.09,,---,0.34,0.00,VWS V14.01,2013-03-12 09:55:00,
2013-03-12 06:00:00,61.2,59.8,29.81,SSW,195,5.0,13.0,95,0.08,,---,0.34,0.00,VWS V14.01,2013-03-12 10:00:00,
2013-03-12 06:05:00,61.4,60.0,29.81,South,184,6.0,9.0,95,0.08,,---,0.34,0.00,VWS V14.01,2013-03-12 10:05:00,
2013-03-12 06:10:00,61.6,60.2,29.80,SSE,157,2.0,8.0,95,0.07,,---,0.34,0.00,VWS V14.01,2013-03-12 10:10:00,
2013-03-12 06:15:00,61.6,60.2,29.80,South,177,1.0,11.0,95,0.06,,---,0.34,0.00,VWS V14.01,2013-03-12 10:15:00,
2013-03-12 06:21:00,61.6,60.2,29.80,SSE,159,5.0,10.0,95,0.05,,---,0.35,0.00,VWS V14.01,2013-03-12 10:21:00,
2013-03-12 06:26:00,61.6,60.2,29.80,SSW,192,5.0,8.0,95,0.05,,---,0.35,0.00,VWS V14.01,2013-03-12 10:26:00,
2013-03-12 06:31:00,61.5,60.1,29.80,South,178,0.0,7.0,95,0.04,,---,0.35,0.00,VWS V14.01,2013-03-12 10:31:00,
2013-03-12 06:36:00,61.5,60.1,29.80,South,170,6.0,7.0,95,0.04,,---,0.35,0.00,VWS V14.01,2013-03-12 10:36:00,
2013-03-12 06:41:00,61.5,60.1,29.80,SSW,210,2.0,2.0,95,0.02,,---,0.35,0.00,VWS V14.01,2013-03-12 10:41:00,
2013-03-12 06:47:00,61.5,60.1,29.80,SSW,202,6.0,6.0,95,0.02,,---,0.35,0.00,VWS V14.01,2013-03-12 10:47:00,
2013-03-12 06:52:00,61.5,60.1,29.81,SSW,200,6.0,6.0,95,0.01,,---,0.35,0.00,VWS V14.01,2013-03-12 10:52:00,
2013-03-12 06:57:00,61.4,60.0,29.80,South,187,0.0,0.0,95,0.01,,---,0.35,0.00,VWS V14.01,2013-03-12 10:57:00,
2013-03-12 07:02:00,61.4,60.0,29.80,SSW,205,3.0,3.0,95,0.01,,---,0.35,0.00,VWS V14.01,2013-03-12 11:02:00,
2013-03-12 07:08:00,61.4,60.0,29.80,SSW,196,0.0,5.0,95,0.01,,---,0.35,0.00,VWS V14.01,2013-03-12 11:08:00,
2013-03-12 07:13:00,61.4,60.0,29.80,SSW,198,3.0,3.0,95,0.01,,---,0.35,0.00,VWS V14.01,2013-03-12 11:13:00,
2013-03-12 07:18:00,61.5,60.1,29.80,SSW,192,0.0,0.0,95,0.01,,---,0.35,0.00,VWS V14.01,2013-03-12 11:18:00,
2013-03-12 07:23:00,61.5,60.1,29.81,SSE,155,0.0,5.0,95,0.00,,---,0.35,0.00,VWS V14.01,2013-03-12 11:23:00,
2013-03-12 07:28:00,61.5,60.1,29.81,South,188,0.0,5.0,95,0.00,,---,0.35,0.00,VWS V14.01,2013-03-12 11:28:00,
2013-03-12 07:33:00,61.6,60.2,29.80,SE,127,1.0,4.0,95,0.00,,---,0.35,0.00,VWS V14.01,2013-03-12 11:33:00,
2013-03-12 07:38:00,61.6,60.2,29.80,SSW,199,1.0,6.0,95,0.01,,---,0.36,0.00,VWS V14.01,2013-03-12 11:38:00,
2013-03-12 07:43:00,61.7,60.3,29.81,SSE,155,5.0,6.0,95,0.01,,---,0.36,0.00,VWS V14.01,2013-03-12 11:43:00,
2013-03-12 07:48:00,61.7,60.3,29.81,SSE,157,2.0,5.0,95,0.01,,---,0.36,0.00,VWS V14.01,2013-03-12 11:48:00,
2013-03-12 07:54:00,61.7,60.3,29.81,SSW,208,4.0,11.0,95,0.03,,---,0.38,0.00,VWS V14.01,2013-03-12 11:54:00,
2013-03-12 07:59:00,61.8,60.4,29.81,SW,232,5.0,11.0,95,0.03,,---,0.38,0.00,VWS V14.01,2013-03-12 11:59:00,
2013-03-12 08:04:00,61.9,60.5,29.81,ESE,113,4.0,9.0,95,0.03,,---,0.38,5.00,VWS V14.01,2013-03-12 12:04:00,
2013-03-12 08:09:00,61.9,60.5,29.82,SW,217,11.0,11.0,95,0.04,,---,0.39,5.00,VWS V14.01,2013-03-12 12:09:00,
2013-03-12 08:14:00,62.0,60.6,29.82,SW,220,9.0,13.0,95,0.04,,---,0.39,5.00,VWS V14.01,2013-03-12 12:14:00,
2013-03-12 08:19:00,62.1,60.7,29.81,SSW,212,8.0,13.0,95,0.04,,---,0.39,7.00,VWS V14.01,2013-03-12 12:19:00,
2013-03-12 08:24:00,62.1,60.7,29.82,SW,215,8.0,13.0,95,0.04,,---,0.39,5.00,VWS V14.01,2013-03-12 12:24:00,
2013-03-12 08:30:00,62.1,60.7,29.82,SSW,202,12.0,14.0,95,0.04,,---,0.39,5.00,VWS V14.01,2013-03-12 12:30:00,
2013-03-12 08:35:00,62.2,60.8,29.83,SSW,202,12.0,17.0,95,0.04,,---,0.39,7.00,VWS V14.01,2013-03-12 12:35:00,
2013-03-12 08:40:00,62.2,60.8,29.83,SSW,209,5.0,13.0,95,0.03,,---,0.39,9.00,VWS V14.01,2013-03-12 12:40:00,
2013-03-12 08:45:00,62.3,60.8,29.83,SW,228,4.0,13.0,95,0.03,,---,0.39,14.00,VWS V14.01,2013-03-12 12:45:00,
2013-03-12 08:50:00,62.3,60.8,29.83,SW,231,5.0,14.0,95,0.03,,---,0.39,16.00,VWS V14.01,2013-03-12 12:50:00,
2013-03-12 08:55:00,62.3,60.8,29.83,SW,215,7.0,10.0,95,0.02,,---,0.39,12.00,VWS V14.01,2013-03-12 12:55:00,
2013-03-12 09:01:00,62.3,60.8,29.83,WSW,238,6.0,9.0,95,0.01,,---,0.39,19.00,VWS V14.01,2013-03-12 13:01:00,
2013-03-12 09:06:00,62.3,60.8,29.84,SW,235,3.0,11.0,95,0.01,,---,0.39,12.00,VWS V14.01,2013-03-12 13:06:00,
2013-03-12 09:11:00,62.4,61.0,29.84,SW,233,6.0,11.0,95,0.01,,---,0.39,30.00,VWS V14.01,2013-03-12 13:11:00,
2013-03-12 09:16:00,62.4,61.0,29.84,SW,222,5.0,10.0,95,0.00,,---,0.39,28.00,VWS V14.01,2013-03-12 13:16:00,
2013-03-12 09:21:00,62.4,61.0,29.84,SW,228,5.0,6.0,95,0.00,,---,0.39,26.00,VWS V14.01,2013-03-12 13:21:00,
2013-03-12 09:26:00,62.4,61.0,29.84,SW,227,4.0,7.0,95,0.00,,---,0.39,33.00,VWS V14.01,2013-03-12 13:26:00,
2013-03-12 09:31:00,62.4,61.0,29.84,SW,233,6.0,9.0,95,0.00,,---,0.39,53.00,VWS V14.01,2013-03-12 13:31:00,
2013-03-12 09:37:00,62.4,61.0,29.84,SW,222,4.0,9.0,95,0.00,,---,0.39,46.00,VWS V14.01,2013-03-12 13:37:00,
2013-03-12 09:42:00,62.4,61.0,29.84,SW,234,7.0,8.0,95,0.00,,---,0.39,33.00,VWS V14.01,2013-03-12 13:42:00,
2013-03-12 09:47:00,62.3,60.8,29.85,SSW,212,9.0,10.0,95,0.00,,---,0.39,30.00,VWS V14.01,2013-03-12 13:47:00,
2013-03-12 09:52:00,62.3,60.8,29.85,SW,228,8.0,11.0,95,0.00,,---,0.39,49.00,VWS V14.01,2013-03-12 13:52:00,
2013-03-12 09:57:00,62.3,60.8,29.85,WSW,242,6.0,8.0,95,0.00,,---,0.39,53.00,VWS V14.01,2013-03-12 13:57:00,
2013-03-12 10:02:00,62.3,60.6,29.85,SW,220,9.0,11.0,94,0.00,,---,0.39,39.00,VWS V14.01,2013-03-12 14:02:00,
2013-03-12 10:07:00,62.3,60.6,29.86,WSW,248,5.0,9.0,94,0.00,,---,0.39,44.00,VWS V14.01,2013-03-12 14:07:00,
2013-03-12 10:12:00,62.3,60.6,29.86,WSW,238,8.0,8.0,94,0.00,,---,0.39,35.00,VWS V14.01,2013-03-12 14:12:00,
2013-03-12 10:18:00,62.3,60.6,29.86,WSW,245,8.0,8.0,94,0.00,,---,0.39,56.00,VWS V14.01,2013-03-12 14:18:00,
2013-03-12 10:23:00,62.2,60.5,29.86,West,266,9.0,11.0,94,0.00,,---,0.39,70.00,VWS V14.01,2013-03-12 14:23:00,
2013-03-12 10:28:00,61.9,60.2,29.86,SW,232,5.0,10.0,94,0.00,,---,0.39,229.00,VWS V14.01,2013-03-12 14:28:00,
2013-03-12 10:33:00,61.8,60.1,29.86,West,259,6.0,6.0,94,0.00,,---,0.39,139.00,VWS V14.01,2013-03-12 14:33:00,
2013-03-12 10:38:00,61.8,60.1,29.86,WSW,249,7.0,8.0,94,0.00,,---,0.39,302.00,VWS V14.01,2013-03-12 14:38:00,
2013-03-12 10:43:00,61.8,60.1,29.86,WSW,254,6.0,7.0,94,0.00,,---,0.39,246.00,VWS V14.01,2013-03-12 14:43:00,
2013-03-12 10:48:00,61.8,60.1,29.86,West,265,4.0,6.0,94,0.00,,---,0.39,197.00,VWS V14.01,2013-03-12 14:48:00,
2013-03-12 10:53:00,61.8,60.1,29.86,WSW,246,6.0,9.0,94,0.00,,---,0.39,343.00,VWS V14.01,2013-03-12 14:53:00,
2013-03-12 10:58:00,61.9,60.2,29.86,WSW,240,8.0,9.0,94,0.01,,---,0.40,329.00,VWS V14.01,2013-03-12 14:58:00,
2013-03-12 11:03:00,62.0,60.0,29.87,SW,231,6.0,12.0,93,0.01,,---,0.40,109.00,VWS V14.01,2013-03-12 15:03:00,
2013-03-12 11:09:00,62.0,60.0,29.87,West,262,8.0,11.0,93,0.01,,---,0.40,97.00,VWS V14.01,2013-03-12 15:09:00,
2013-03-12 11:14:00,61.6,59.3,29.87,WSW,240,7.0,13.0,92,0.01,,---,0.40,120.00,VWS V14.01,2013-03-12 15:14:00,
2013-03-12 11:19:00,61.4,58.8,29.87,West,262,9.0,10.0,91,0.01,,---,0.40,128.00,VWS V14.01,2013-03-12 15:19:00,
2013-03-12 11:24:00,61.1,58.5,29.87,West,265,9.0,14.0,91,0.01,,---,0.40,67.00,VWS V14.01,2013-03-12 15:24:00,
2013-03-12 11:29:00,60.4,57.5,29.87,West,273,8.0,13.0,90,0.01,,---,0.40,135.00,VWS V14.01,2013-03-12 15:29:00,
2013-03-12 11:34:00,60.0,57.4,29.87,West,278,9.0,9.0,91,0.01,,---,0.40,186.00,VWS V14.01,2013-03-12 15:34:00,
2013-03-12 11:39:00,59.8,57.2,29.87,West,262,7.0,9.0,91,0.01,,---,0.40,207.00,VWS V14.01,2013-03-12 15:39:00,
2013-03-12 11:44:00,59.7,57.1,29.88,WSW,254,10.0,11.0,91,0.01,,---,0.40,193.00,VWS V14.01,2013-03-12 15:44:00,
2013-03-12 11:49:00,59.6,57.3,29.87,West,267,6.0,10.0,92,0.01,,---,0.40,190.00,VWS V14.01,2013-03-12 15:49:00,
2013-03-12 11:54:00,59.6,57.3,29.87,WSW,258,7.0,9.0,92,0.01,,---,0.40,264.00,VWS V14.01,2013-03-12 15:54:00,
2013-03-12 12:00:00,59.8,57.8,29.87,West,264,7.0,9.0,93,0.00,,---,0.40,545.00,VWS V14.01,2013-03-12 16:00:00,
2013-03-12 12:05:00,60.0,57.7,29.87,WSW,248,9.0,10.0,92,0.00,,---,0.40,415.00,VWS V14.01,2013-03-12 16:05:00,
2013-03-12 12:10:00,60.0,57.7,29.87,WSW,256,3.0,8.0,92,0.00,,---,0.40,420.00,VWS V14.01,2013-03-12 16:10:00,
2013-03-12 12:15:00,60.1,57.8,29.87,West,263,5.0,7.0,92,0.00,,---,0.40,373.00,VWS V14.01,2013-03-12 16:15:00,
2013-03-12 12:20:00,60.3,58.0,29.87,WSW,239,3.0,5.0,92,0.00,,---,0.40,341.00,VWS V14.01,2013-03-12 16:20:00,
2013-03-12 12:25:00,60.7,58.1,29.87,WNW,284,5.0,8.0,91,0.00,,---,0.40,306.00,VWS V14.01,2013-03-12 16:25:00,
2013-03-12 12:30:00,61.1,58.2,29.87,WNW,294,8.0,9.0,90,0.00,,---,0.40,366.00,VWS V14.01,2013-03-12 16:30:00,
2013-03-12 12:35:00,61.4,57.8,29.87,NW,304,7.0,13.0,88,0.00,,---,0.40,415.00,VWS V14.01,2013-03-12 16:35:00,
2013-03-12 12:40:00,61.8,57.9,29.87,WNW,288,7.0,10.0,87,0.00,,---,0.40,610.00,VWS V14.01,2013-03-12 16:40:00,
2013-03-12 12:45:00,62.2,58.3,29.88,West,259,5.0,11.0,87,0.00,,---,0.40,780.00,VWS V14.01,2013-03-12 16:45:00,
2013-03-12 12:50:00,62.9,59.0,29.87,WSW,255,9.0,11.0,87,0.00,,---,0.40,752.00,VWS V14.01,2013-03-12 16:50:00,
2013-03-12 12:55:00,63.2,58.3,29.87,WSW,252,12.0,12.0,84,0.00,,---,0.40,893.00,VWS V14.01,2013-03-12 16:55:00,
2013-03-12 13:01:00,63.6,59.0,29.87,WSW,248,9.0,9.0,85,0.00,,---,0.40,956.00,VWS V14.01,2013-03-12 17:01:00,
2013-03-12 13:06:00,63.8,57.9,29.87,SW,228,6.0,10.0,81,0.00,,---,0.40,796.00,VWS V14.01,2013-03-12 17:06:00,
2013-03-12 13:11:00,64.0,58.1,29.87,WNW,294,8.0,11.0,81,0.00,,---,0.40,874.00,VWS V14.01,2013-03-12 17:11:00,
2013-03-12 13:16:00,63.9,57.3,29.87,WSW,248,6.0,12.0,79,0.00,,---,0.40,768.00,VWS V14.01,2013-03-12 17:16:00,
2013-03-12 13:21:00,64.3,57.3,29.86,WNW,282,9.0,9.0,78,0.00,,---,0.40,814.00,VWS V14.01,2013-03-12 17:21:00,
2013-03-12 13:27:00,64.3,56.6,29.86,West,259,5.0,7.0,76,0.00,,---,0.40,942.00,VWS V14.01,2013-03-12 17:27:00,
2013-03-12 13:32:00,64.9,56.4,29.86,West,274,4.0,4.0,74,0.00,,---,0.40,865.00,VWS V14.01,2013-03-12 17:32:00,
2013-03-12 13:37:00,65.4,54.6,29.85,WSW,249,4.0,7.0,68,0.00,,---,0.40,722.00,VWS V14.01,2013-03-12 17:37:00,
2013-03-12 13:42:00,65.6,55.2,29.85,WNW,290,1.0,7.0,69,0.00,,---,0.40,837.00,VWS V14.01,2013-03-12 17:42:00,
2013-03-12 13:48:00,65.8,53.3,29.85,WSW,238,0.0,4.0,64,0.00,,---,0.40,877.00,VWS V14.01,2013-03-12 17:48:00,
2013-03-12 13:53:00,66.4,53.4,29.84,SW,229,1.0,4.0,63,0.00,,---,0.40,773.00,VWS V14.01,2013-03-12 17:53:00,
2013-03-12 13:58:00,66.9,53.5,29.84,West,261,4.0,6.0,62,0.00,,---,0.40,933.00,VWS V14.01,2013-03-12 17:58:00,
2013-03-12 14:03:00,67.2,52.4,29.84,WSW,253,6.0,8.0,59,0.00,,---,0.40,925.00,VWS V14.01,2013-03-12 18:03:00,
2013-03-12 14:08:00,67.5,50.8,29.83,West,265,3.0,5.0,55,0.00,,---,0.40,766.00,VWS V14.01,2013-03-12 18:08:00,
2013-03-12 14:13:00,67.9,52.1,29.83,SSW,209,3.0,8.0,57,0.00,,---,0.40,907.00,VWS V14.01,2013-03-12 18:13:00,
2013-03-12 14:18:00,68.1,51.8,29.83,WSW,250,6.0,9.0,56,0.00,,---,0.40,930.00,VWS V14.01,2013-03-12 18:18:00,
2013-03-12 14:23:00,68.7,51.9,29.83,West,260,6.0,8.0,55,0.00,,---,0.40,738.00,VWS V14.01,2013-03-12 18:23:00,
2013-03-12 14:28:00,69.2,52.4,29.83,West,271,6.0,9.0,55,0.00,,---,0.40,677.00,VWS V14.01,2013-03-12 18:28:00,
2013-03-12 14:34:00,69.2,51.4,29.84,WSW,257,5.0,11.0,53,0.00,,---,0.40,853.00,VWS V14.01,2013-03-12 18:34:00,
2013-03-12 14:39:00,69.3,52.0,29.84,West,277,4.0,9.0,54,0.00,,---,0.40,842.00,VWS V14.01,2013-03-12 18:39:00,
2013-03-12 14:44:00,69.5,50.6,29.83,West,269,4.0,9.0,51,0.00,,---,0.40,809.00,VWS V14.01,2013-03-12 18:44:00,
2013-03-12 14:49:00,69.7,50.2,29.83,West,269,8.0,11.0,50,0.00,,---,0.40,837.00,VWS V14.01,2013-03-12 18:49:00,
2013-03-12 14:54:00,69.9,49.3,29.83,WSW,249,7.0,13.0,48,0.00,,---,0.40,863.00,VWS V14.01,2013-03-12 18:54:00,
2013-03-12 14:59:00,70.2,50.2,29.83,WNW,302,3.0,13.0,49,0.00,,---,0.40,831.00,VWS V14.01,2013-03-12 18:59:00,
2013-03-12 15:05:00,70.3,51.3,29.83,WSW,257,8.0,10.0,51,0.00,,---,0.40,807.00,VWS V14.01,2013-03-12 19:05:00,
2013-03-12 15:10:00,70.4,50.9,29.83,West,273,2.0,13.0,50,0.00,,---,0.40,773.00,VWS V14.01,2013-03-12 19:10:00,
2013-03-12 15:15:00,70.6,50.5,29.83,West,269,9.0,13.0,49,0.00,,---,0.40,768.00,VWS V14.01,2013-03-12 19:15:00,
2013-03-12 15:20:00,70.9,50.2,29.83,WSW,255,5.0,14.0,48,0.00,,---,0.40,726.00,VWS V14.01,2013-03-12 19:20:00,
2013-03-12 15:25:00,71.1,51.0,29.83,WSW,240,6.0,13.0,49,0.00,,---,0.40,680.00,VWS V14.01,2013-03-12 19:25:00,
2013-03-12 15:30:00,71.0,50.3,29.83,WSW,250,6.0,8.0,48,0.00,,---,0.40,647.00,VWS V14.01,2013-03-12 19:30:00,
2013-03-12 15:35:00,71.5,51.9,29.83,West,275,6.0,17.0,50,0.00,,---,0.40,373.00,VWS V14.01,2013-03-12 19:35:00,
2013-03-12 15:40:00,71.7,51.5,29.83,West,261,14.0,15.0,49,0.00,,---,0.40,603.00,VWS V14.01,2013-03-12 19:40:00,
2013-03-12 15:45:00,71.4,51.3,29.83,West,261,11.0,17.0,49,0.00,,---,0.40,589.00,VWS V14.01,2013-03-12 19:45:00,
2013-03-12 15:50:00,71.5,50.2,29.83,WNW,290,9.0,17.0,47,0.00,,---,0.40,571.00,VWS V14.01,2013-03-12 19:50:00,
2013-03-12 15:55:00,71.4,50.1,29.84,West,279,12.0,14.0,47,0.00,,---,0.40,563.00,VWS V14.01,2013-03-12 19:55:00,
2013-03-12 16:00:00,71.1,49.9,29.84,NW,307,7.0,14.0,47,0.00,,---,0.40,559.00,VWS V14.01,2013-03-12 20:00:00,
2013-03-12 16:05:00,70.8,50.7,29.83,West,279,16.0,16.0,49,0.00,,---,0.40,573.00,VWS V14.01,2013-03-12 20:05:00,
2013-03-12 16:11:00,70.6,50.0,29.84,West,279,6.0,12.0,48,0.00,,---,0.40,585.00,VWS V14.01,2013-03-12 20:11:00,
2013-03-12 16:16:00,70.4,49.8,29.84,West,268,5.0,15.0,48,0.00,,---,0.40,596.00,VWS V14.01,2013-03-12 20:16:00,
2013-03-12 16:21:00,70.4,49.2,29.84,WSW,249,7.0,14.0,47,0.00,,---,0.40,606.00,VWS V14.01,2013-03-12 20:21:00,
2013-03-12 16:26:00,70.2,49.0,29.84,West,271,9.0,12.0,47,0.00,,---,0.40,605.00,VWS V14.01,2013-03-12 20:26:00,
2013-03-12 16:31:00,70.2,49.0,29.84,West,270,6.0,11.0,47,0.00,,---,0.40,605.00,VWS V14.01,2013-03-12 20:31:00,
2013-03-12 16:37:00,70.1,50.1,29.84,WNW,296,8.0,9.0,49,0.00,,---,0.40,591.00,VWS V14.01,2013-03-12 20:37:00,
2013-03-12 16:42:00,70.2,49.0,29.84,WSW,256,7.0,8.0,47,0.00,,---,0.40,578.00,VWS V14.01,2013-03-12 20:42:00,
2013-03-12 16:47:00,70.2,50.2,29.84,West,264,12.0,12.0,49,0.00,,---,0.40,561.00,VWS V14.01,2013-03-12 20:47:00,
2013-03-12 16:52:00,70.0,49.4,29.84,WNW,294,6.0,13.0,48,0.00,,---,0.40,543.00,VWS V14.01,2013-03-12 20:52:00,
2013-03-12 16:57:00,69.8,49.2,29.84,WNW,286,5.0,7.0,48,0.00,,---,0.40,417.00,VWS V14.01,2013-03-12 20:57:00,
2013-03-12 17:02:00,69.7,48.0,29.84,NW,306,4.0,12.0,46,0.00,,---,0.40,51.00,VWS V14.01,2013-03-12 21:02:00,
2013-03-12 17:07:00,69.8,47.5,29.85,WNW,296,5.0,7.0,45,0.00,,---,0.40,54.00,VWS V14.01,2013-03-12 21:07:00,
2013-03-12 17:13:00,69.8,47.5,29.85,West,269,6.0,11.0,45,0.00,,---,0.40,452.00,VWS V14.01,2013-03-12 21:13:00,
2013-03-12 17:18:00,69.7,48.0,29.85,West,269,6.0,8.0,46,0.00,,---,0.40,455.00,VWS V14.01,2013-03-12 21:18:00,
2013-03-12 17:23:00,69.6,47.9,29.85,West,273,10.0,12.0,46,0.00,,---,0.40,434.00,VWS V14.01,2013-03-12 21:23:00,
2013-03-12 17:28:00,69.6,47.9,29.85,WNW,283,7.0,10.0,46,0.00,,---,0.40,418.00,VWS V14.01,2013-03-12 21:28:00,
2013-03-12 17:34:00,69.7,48.0,29.85,West,263,13.0,13.0,46,0.00,,---,0.40,396.00,VWS V14.01,2013-03-12 21:34:00,
2013-03-12 17:39:00,69.6,47.3,29.85,WNW,285,11.0,13.0,45,0.00,,---,0.40,374.00,VWS V14.01,2013-03-12 21:39:00,
2013-03-12 17:44:00,69.4,47.2,29.85,NW,304,7.0,13.0,45,0.00,,---,0.40,355.00,VWS V14.01,2013-03-12 21:44:00,
2013-03-12 17:49:00,69.3,47.7,29.85,WSW,256,6.0,9.0,46,0.00,,---,0.40,341.00,VWS V14.01,2013-03-12 21:49:00,
2013-03-12 17:54:00,69.3,48.2,29.85,WNW,291,3.0,7.0,47,0.00,,---,0.40,322.00,VWS V14.01,2013-03-12 21:54:00,
2013-03-12 17:59:00,69.4,47.2,29.85,WNW,288,8.0,10.0,45,0.00,,---,0.40,301.00,VWS V14.01,2013-03-12 21:59:00,
2013-03-12 18:04:00,69.4,48.3,29.86,NW,309,3.0,10.0,47,0.00,,---,0.40,278.00,VWS V14.01,2013-03-12 22:04:00,
2013-03-12 18:09:00,69.3,47.7,29.86,West,270,3.0,5.0,46,0.00,,---,0.40,255.00,VWS V14.01,2013-03-12 22:09:00,
2013-03-12 18:14:00,69.3,48.8,29.86,WSW,246,5.0,7.0,48,0.00,,---,0.40,230.00,VWS V14.01,2013-03-12 22:14:00,
2013-03-12 18:19:00,69.2,48.1,29.86,WSW,249,6.0,8.0,47,0.00,,---,0.40,207.00,VWS V14.01,2013-03-12 22:19:00,
2013-03-12 18:25:00,69.1,47.5,29.86,West,271,6.0,9.0,46,0.00,,---,0.40,183.00,VWS V14.01,2013-03-12 22:25:00,
2013-03-12 18:30:00,69.0,48.0,29.86,WNW,284,7.0,8.0,47,0.00,,---,0.40,160.00,VWS V14.01,2013-03-12 22:30:00,
2013-03-12 18:35:00,68.8,48.3,29.86,West,259,9.0,10.0,48,0.00,,---,0.40,135.00,VWS V14.01,2013-03-12 22:35:00,
2013-03-12 18:40:00,68.6,48.2,29.86,West,273,7.0,8.0,48,0.00,,---,0.40,114.00,VWS V14.01,2013-03-12 22:40:00,
2013-03-12 18:45:00,68.4,48.5,29.87,West,277,7.0,8.0,49,0.00,,---,0.40,98.00,VWS V14.01,2013-03-12 22:45:00,
2013-03-12 18:50:00,68.2,47.8,29.87,WNW,288,7.0,10.0,48,0.00,,---,0.40,81.00,VWS V14.01,2013-03-12 22:50:00,
2013-03-12 18:55:00,67.9,48.1,29.87,West,275,5.0,8.0,49,0.00,,---,0.40,63.00,VWS V14.01,2013-03-12 22:55:00,
2013-03-12 19:00:00,67.7,47.9,29.87,West,279,5.0,11.0,49,0.00,,---,0.40,47.00,VWS V14.01,2013-03-12 23:00:00,
2013-03-12 19:05:00,67.4,47.6,29.87,West,269,3.0,9.0,49,0.00,,---,0.40,33.00,VWS V14.01,2013-03-12 23:05:00,
2013-03-12 19:10:00,67.1,47.3,29.88,West,275,3.0,8.0,49,0.00,,---,0.40,25.00,VWS V14.01,2013-03-12 23:10:00,
2013-03-12 19:16:00,66.8,47.6,29.88,West,266,1.0,8.0,50,0.00,,---,0.40,19.00,VWS V14.01,2013-03-12 23:16:00,
2013-03-12 19:21:00,66.4,47.7,29.88,WSW,253,4.0,6.0,51,0.00,,---,0.40,14.00,VWS V14.01,2013-03-12 23:21:00,
2013-03-12 19:26:00,65.8,47.2,29.89,West,259,2.0,4.0,51,0.00,,---,0.40,7.00,VWS V14.01,2013-03-12 23:26:00,
2013-03-12 19:31:00,65.3,47.2,29.89,West,259,0.0,0.0,52,0.00,,---,0.40,5.00,VWS V14.01,2013-03-12 23:31:00,
2013-03-12 19:36:00,64.9,47.4,29.89,West,259,0.0,1.0,53,0.00,,---,0.40,0.00,VWS V14.01,2013-03-12 23:36:00,
2013-03-12 19:42:00,64.4,47.4,29.90,West,259,3.0,3.0,54,0.00,,---,0.40,0.00,VWS V14.01,2013-03-12 23:42:00,
2013-03-12 19:47:00,63.9,47.0,29.90,West,259,0.0,2.0,54,0.00,,---,0.40,0.00,VWS V14.01,2013-03-12 23:47:00,
2013-03-12 19:52:00,63.5,46.6,29.90,West,259,0.0,2.0,54,0.00,,---,0.40,0.00,VWS V14.01,2013-03-12 23:52:00,
2013-03-12 19:57:00,63.1,46.2,29.90,West,259,0.0,2.0,54,0.00,,---,0.40,0.00,VWS V14.01,2013-03-12 23:57:00,
2013-03-12 20:03:00,62.7,46.3,29.91,West,259,0.0,3.0,55,0.00,,---,0.40,0.00,VWS V14.01,2013-03-13 00:03:00,
2013-03-12 20:08:00,62.4,46.5,29.91,West,259,2.0,3.0,56,0.00,,---,0.40,0.00,VWS V14.01,2013-03-13 00:08:00,
2013-03-12 20:13:00,62.1,46.2,29.92,West,262,3.0,4.0,56,0.00,,---,0.40,0.00,VWS V14.01,2013-03-13 00:13:00,
2013-03-12 20:18:00,61.7,46.3,29.92,West,261,0.0,2.0,57,0.00,,---,0.40,0.00,VWS V14.01,2013-03-13 00:18:00,
2013-03-12 20:23:00,61.5,46.1,29.92,West,261,3.0,3.0,57,0.00,,---,0.40,0.00,VWS V14.01,2013-03-13 00:23:00,
2013-03-12 20:28:00,61.2,45.9,29.92,West,262,0.0,0.0,57,0.00,,---,0.40,0.00,VWS V14.01,2013-03-13 00:28:00,
2013-03-12 20:33:00,61.0,45.7,29.92,West,261,0.0,4.0,57,0.00,,---,0.40,0.00,VWS V14.01,2013-03-13 00:33:00,
2013-03-12 20:38:00,60.8,46.0,29.92,West,261,0.0,0.0,58,0.00,,---,0.40,0.00,VWS V14.01,2013-03-13 00:38:00,
2013-03-12 20:44:00,60.5,45.2,29.92,West,263,0.0,3.0,57,0.00,,---,0.40,0.00,VWS V14.01,2013-03-13 00:44:00,
2013-03-12 20:49:00,60.3,45.0,29.93,West,263,1.0,3.0,57,0.00,,---,0.40,0.00,VWS V14.01,2013-03-13 00:49:00,
2013-03-12 20:54:00,60.2,45.4,29.93,West,263,0.0,0.0,58,0.00,,---,0.40,0.00,VWS V14.01,2013-03-13 00:54:00,
2013-03-12 21:01:00,59.9,45.1,29.93,West,263,0.0,3.0,58,0.00,,---,0.40,0.00,VWS V14.01,2013-03-13 01:01:00,
2013-03-12 21:16:00,59.3,44.5,29.93,West,263,0.0,0.0,58,0.00,,---,0.40,0.00,VWS V14.01,2013-03-13 01:16:00,
2013-03-12 21:26:00,58.9,44.2,29.93,West,263,0.0,0.0,58,0.00,,---,0.40,0.00,VWS V14.01,2013-03-13 01:26:00,
2013-03-12 21:31:00,58.6,43.9,29.93,West,263,0.0,1.0,58,0.00,,---,0.40,0.00,VWS V14.01,2013-03-13 01:31:00,
2013-03-12 21:36:00,58.3,44.0,29.93,West,263,1.0,1.0,59,0.00,,---,0.40,0.00,VWS V14.01,2013-03-13 01:36:00,
2013-03-12 21:46:00,57.8,44.0,29.94,West,263,0.0,2.0,60,0.00,,---,0.40,0.00,VWS V14.01,2013-03-13 01:46:00,
2013-03-12 22:01:00,57.1,43.4,29.95,West,263,0.0,3.0,60,0.00,,---,0.40,0.00,VWS V14.01,2013-03-13 02:01:00,
2013-03-12 22:06:00,56.9,42.7,29.95,West,264,2.0,3.0,59,0.00,,---,0.40,0.00,VWS V14.01,2013-03-13 02:06:00,
2013-03-12 22:21:00,56.4,42.3,29.96,West,270,3.0,3.0,59,0.00,,---,0.40,0.00,VWS V14.01,2013-03-13 02:21:00,
2013-03-12 22:26:00,56.3,42.2,29.96,West,277,0.0,6.0,59,0.00,,---,0.40,0.00,VWS V14.01,2013-03-13 02:26:00,
2013-03-12 22:31:00,56.2,42.1,29.96,West,273,0.0,4.0,59,0.00,,---,0.40,0.00,VWS V14.01,2013-03-13 02:31:00,
2013-03-12 22:36:00,56.0,41.9,29.96,West,273,4.0,7.0,59,0.00,,---,0.40,0.00,VWS V14.01,2013-03-13 02:36:00,
2013-03-12 22:51:00,56.2,41.6,29.97,West,269,4.0,10.0,58,0.00,,---,0.40,0.00,VWS V14.01,2013-03-13 02:51:00,
2013-03-12 22:56:00,56.2,41.6,29.97,West,263,4.0,8.0,58,0.00,,---,0.40,0.00,VWS V14.01,2013-03-13 02:56:00,
2013-03-12 23:01:00,56.2,41.6,29.97,West,277,2.0,8.0,58,0.00,,---,0.40,0.00,VWS V14.01,2013-03-13 03:01:00,
2013-03-12 23:11:00,55.9,41.3,29.97,West,271,5.0,7.0,58,0.00,,---,0.40,0.00,VWS V14.01,2013-03-13 03:11:00,
2013-03-12 23:26:00,55.4,41.3,29.97,WSW,256,0.0,6.0,59,0.00,,---,0.40,0.00,VWS V14.01,2013-03-13 03:26:00,
2013-03-12 23:31:00,55.2,41.1,29.98,West,267,0.0,6.0,59,0.00,,---,0.40,0.00,VWS V14.01,2013-03-13 03:31:00,
2013-03-12 23:36:00,55.0,41.0,29.98,West,267,4.0,4.0,59,0.00,,---,0.40,0.00,VWS V14.01,2013-03-13 03:36:00,
2013-03-12 23:46:00,54.6,40.6,29.98,West,263,0.0,4.0,59,0.00,,---,0.40,0.00,VWS V14.01,2013-03-13 03:46:00,
2013-03-12 23:51:00,54.4,40.4,29.99,West,267,2.0,4.0,59,0.00,,---,0.40,0.00,VWS V14.01,2013-03-13 03:51:00,
2013-03-12 23:56:00,54.3,40.3,29.98,West,267,0.0,4.0,59,0.00,,---,0.40,0.00,VWS V14.01,2013-03-13 03:56:00,